[[{"header":{"parameterUnit":"m.s-1","parameterCategory":1,"la1":30.2991,"la2":30.254,"lo1":-89.0895,"lo2":-89.0444,"dy":0.0017,"dx":0.0017,"nx":28,"ny":28,"refTime":"2025-05-28T21:00:00:Z","depth":0,"parameterNumber":2,"parameterNumberName":"U-component_of_WINDS"},"data":[0,0,0,0,0,0,0,0,0,0,0,0,0,0,0,0,0,0,0,0,0,0,0,0,0,0,0,0,0,0,0,0,0,0,0,0,0,0,0,0,0,0,0,0,0,0,0,0,0,0,0,0,0,0,0,0,0,0,-2.123,-2.123,0,-2.1228,-2.1228,-2.1228,-2.1125,-2.1122,-2.112,-2.1117,-2.1132,-2.1135,-2.1138,0,0,0,0,0,0,0,0,0,0,0,0,0,-2.1159,-2.116,-2.123,-2.123,-2.123,-2.1228,-2.1228,-2.1228,-2.1126,-2.1122,-2.1119,-2.1116,-2.1131,-2.1135,-2.1138,0,0,0,0,0,0,0,0,0,0,0,0,0,-2.1177,-2.1161,-2.123,-2.1178,-2.1174,-2.1228,-2.1228,-2.1228,-2.1126,-2.1122,-2.1118,-2.1114,-2.113,-2.1134,-2.1139,-2.1248,0,0,-2.1152,-2.1154,0,0,0,0,0,0,0,0,-2.1176,-2.118,-2.1186,-2.1182,-2.1177,-2.1172,-2.1208,-2.1236,-2.1127,-2.1145,-2.1117,-2.1112,-2.115,-2.1153,-2.1162,-2.1249,-2.1249,-2.1153,-2.1155,-2.1157,-2.1158,0,0,0,0,0,0,0,-2.1175,-2.1179,-2.123,-2.1186,-2.1181,-2.116,-2.1158,-2.1213,-2.1171,-2.1143,-2.1136,-2.1136,-2.1147,-2.1158,-2.1161,-2.125,-2.1152,-2.1156,-2.1159,-2.1161,-2.1424,-2.1428,0,0,0,0,0,0,-2.1179,-2.1179,-2.123,-2.123,-2.1166,-2.1164,-2.1162,-2.1178,-2.117,-2.1164,-2.1139,-2.1131,-2.1152,-2.1156,-2.1162,-2.1288,-2.1157,-2.1161,-2.1164,-2.142,-2.1425,-2.143,0,0,0,0,0,0,-2.1178,-2.1184,-2.123,-2.1202,-2.1206,-2.117,-2.1189,-2.1181,-2.1191,-2.1167,-2.116,-2.1157,-2.1149,-2.1155,-2.1225,-2.1287,-2.1163,-2.1167,-2.1415,-2.1421,-2.1427,-2.1542,0,0,0,0,0,0,-2.1176,-2.1184,-2.1223,-2.1204,-2.1208,-2.1291,-2.1193,-2.1183,-2.1197,-2.1186,-2.1182,-2.1178,-2.1146,-2.1219,-2.123,-2.1291,-2.1171,-2.1409,-2.1418,-2.1425,-2.1533,-2.1552,-2.1568,0,0,0,0,0,-2.1174,-2.126,-2.1225,-2.1232,-2.1255,-2.1294,-2.1298,-2.1255,-2.1202,-2.1242,-2.1226,-2.1178,-2.1277,-2.1227,-2.1238,-2.1302,-2.1405,-2.1415,-2.1425,-2.1525,-2.1548,-2.1567,0,0,0,0,0,0,-2.1294,-2.1256,-2.1218,-2.1299,-2.13,-2.1277,-2.1327,-2.1281,-2.1302,-2.1292,-2.1242,-2.1243,-2.1321,-2.1318,-2.1263,-2.1406,-2.1333,-2.1345,-2.1405,-2.1427,-2.1444,-2.1445,-2.1174,0,0,0,0,0,-2.1329,-2.1359,-2.1327,-2.1402,-2.1403,-2.1365,-2.1381,-2.1346,-2.1348,-2.135,-2.1339,-2.1347,-2.1379,-2.1402,-2.1431,-2.153,-2.1529,-2.1579,-2.1597,-2.1611,-2.1624,-2.1675,-2.1697,-2.1462,-2.1462,-2.1461,0,0,-2.1404,-2.1387,-2.1411,-2.1425,-2.1422,-2.1459,-2.1366,-2.141,-2.1438,-2.1359,-2.1422,-2.1414,-2.142,-2.1504,-2.1541,-2.1504,-2.1687,-2.1623,-2.1635,-2.164,-2.1687,-2.1709,-2.1729,-2.1468,-2.1467,-2.1466,0,0,-2.1559,-2.1548,-2.1608,-2.1604,-2.1598,-2.157,-2.1585,-2.1567,-2.1557,-2.1619,-2.1559,-2.1593,-2.1651,-2.1656,-2.1667,-2.1817,-2.1774,-2.1829,-2.1922,-2.1973,-2.1991,-2.2007,-2.2062,-2.2082,-2.184,-2.1841,-2.1841,0,-2.1654,-2.1702,-2.1646,-2.1692,-2.1701,-2.1622,-2.1685,-2.1686,-2.1693,-2.1702,-2.1659,-2.1726,-2.1724,-2.1808,-2.1844,-2.1855,-2.1872,-2.1831,-2.1992,-2.2008,-2.2022,-2.2074,-2.2094,-2.1847,-2.1847,-2.1846,-2.1845,0,-2.182,-2.1854,-2.1904,-2.1904,-2.1919,-2.1973,-2.1929,-2.1951,-2.1914,-2.1893,-2.1957,-2.195,-2.1975,-2.1992,-2.1961,-2.2071,-2.2048,-2.1999,-2.1926,-2.2052,-2.21,-2.2119,-2.1857,-2.1855,-2.1853,-2.1851,0,0,-2.2056,-2.2019,-2.2039,-2.2037,-2.2021,-2.2049,-2.21,-2.2117,-2.2138,-2.2143,-2.2187,-2.2234,-2.2186,-2.2198,-2.2165,-2.2209,-2.2329,-2.2154,-2.2154,-2.2188,-2.2451,-2.249,-2.2513,-2.2298,-2.2301,-2.2304,-2.2451,0,-2.2206,-2.2286,-2.2235,-2.2325,-2.2356,-2.228,-2.2324,-2.2322,-2.2302,-2.2329,-2.2309,-2.2342,-2.2277,-2.2283,-2.2323,-2.2306,-2.2382,-2.2294,-2.2342,-2.2344,-2.2345,-2.2538,-2.258,-2.2719,-2.2469,-2.2472,-2.2475,0,-2.2393,-2.2399,-2.249,-2.2465,-2.2476,-2.2517,-2.2527,-2.2553,-2.2548,-2.2531,-2.254,-2.2496,-2.2547,-2.247,-2.2541,-2.2483,-2.2499,-2.2493,-2.2498,-2.2503,-2.2419,-2.2551,-2.2762,-2.2784,-2.2503,-2.2501,-2.2499,0,-2.2557,-2.2589,-2.2646,-2.2647,-2.2619,-2.2649,-2.264,-2.263,-2.2643,-2.2654,-2.2662,-2.2681,-2.2692,-2.2709,-2.2672,-2.2619,-2.2749,-2.2669,-2.2739,-2.274,-2.2773,-2.2772,-2.2992,-2.2779,-2.2779,-2.2779,-2.2778,0,-2.2732,-2.2791,-2.2719,-2.2755,-2.2819,-2.276,-2.2827,-2.281,-2.2801,-2.2835,-2.2772,-2.2806,-2.2752,-2.2782,-2.2753,-2.2817,-2.2823,-2.2812,-2.2805,-2.2819,-2.2821,-2.2832,-2.2822,-2.2784,-2.2783,-2.2782,-2.2781,0,-2.2928,-2.2881,-2.2939,-2.2905,-2.2898,-2.2947,-2.2919,-2.2953,-2.2926,-2.2969,-2.2976,-2.2936,-2.2967,-2.2929,-2.296,-2.294,-2.3026,-2.3003,-2.3026,-2.302,-2.3092,-2.3086,-2.3329,-2.3358,-2.3125,-2.3127,-2.3129,0,-2.3044,-2.3086,-2.3054,-2.3068,-2.3061,-2.3087,-2.3097,-2.3041,-2.3056,-2.305,-2.3086,-2.3109,-2.3126,-2.3179,-2.3156,-2.3178,-2.3156,-2.3239,-2.316,-2.3172,-2.3159,-2.3157,-2.3162,-2.3257,-2.326,-2.3262,-2.3264,0,-2.3254,-2.3227,-2.3242,-2.3249,-2.3261,-2.3266,-2.3265,-2.3282,-2.3223,-2.3243,-2.327,-2.3282,-2.3307,-2.3333,-2.3347,-2.3342,-2.3295,-2.3288,-2.3305,-2.3323,-2.3334,-2.3329,-2.3072,-2.3284,-2.3282,-2.3281,-2.3279,-2.3279,-2.3415,-2.3448,-2.3429,-2.3447,-2.3439,-2.3439,-2.3467,-2.3441,-2.3461,-2.3473,-2.3439,-2.3475,-2.3467,-2.348,-2.3479,-2.3508,-2.3473,-2.3499,-2.3505,-2.3513,-2.3524,-2.3326,-2.3511,-2.351,-2.351,-2.3509,-2.3509,0,-2.3623,-2.3605,-2.3622,-2.362,-2.3634,-2.358,-2.3575,-2.3593,-2.3623,-2.3617,-2.3631,-2.3662,-2.3685,-2.366,-2.3679,-2.3707,-2.3686,-2.3714,-2.3714,-2.3713,-2.3554,-2.3537,-2.3731,-2.3731,-2.3731,-2.3731,-2.3731,-2.3731,-2.3733,-2.3786,-2.3757,-2.3805,-2.3788,-2.3817,-2.3819,-2.3819,-2.3813,-2.3848,-2.3864,-2.3845,-2.3832,-2.3848,-2.3868,-2.386,-2.3871,-2.3908,-2.3893,-2.3746,-2.3724,-2.3704,-2.3688,-2.391,-2.391,-2.4049,-2.4051,-2.4052]},{"header":{"parameterUnit":"m.s-1","parameterCategory":1,"la1":30.2991,"la2":30.254,"lo1":-89.0895,"lo2":-89.0444,"dy":0.0017,"dx":0.0017,"nx":28,"ny":28,"refTime":"2025-05-28T21:00:00:Z","depth":0,"parameterNumber":3,"parameterNumberName":"V-component_of_WINDS"},"data":[0,0,0,0,0,0,0,0,0,0,0,0,0,0,0,0,0,0,0,0,0,0,0,0,0,0,0,0,0,0,0,0,0,0,0,0,0,0,0,0,0,0,0,0,0,0,0,0,0,0,0,0,0,0,0,0,0,0,-1.8115,-1.8116,0,-1.8139,-1.8139,-1.814,-1.8087,-1.8085,-1.8083,-1.8082,-1.8114,-1.8116,-1.8119,0,0,0,0,0,0,0,0,0,0,0,0,0,-1.8026,-1.8028,-1.8115,-1.8116,-1.8116,-1.8139,-1.8139,-1.814,-1.8087,-1.8085,-1.8083,-1.8081,-1.8113,-1.8116,-1.8119,0,0,0,0,0,0,0,0,0,0,0,0,0,-1.8059,-1.8029,-1.8115,-1.8092,-1.809,-1.8139,-1.8139,-1.814,-1.8088,-1.8085,-1.8082,-1.808,-1.8112,-1.8116,-1.8119,-1.8194,0,0,-1.813,-1.8132,0,0,0,0,0,0,0,0,-1.8058,-1.8063,-1.8095,-1.8094,-1.8092,-1.8107,-1.812,-1.8158,-1.8088,-1.8089,-1.8082,-1.8079,-1.8114,-1.8117,-1.8128,-1.8195,-1.8196,-1.8131,-1.8133,-1.8135,-1.8136,0,0,0,0,0,0,0,-1.8055,-1.8061,-1.8125,-1.8096,-1.8094,-1.8081,-1.8083,-1.8127,-1.8116,-1.8089,-1.8085,-1.8088,-1.8113,-1.8124,-1.8128,-1.8197,-1.8131,-1.8134,-1.8136,-1.8138,-1.832,-1.8323,0,0,0,0,0,0,-1.8055,-1.806,-1.8124,-1.8126,-1.8068,-1.8085,-1.8087,-1.8105,-1.8115,-1.8114,-1.809,-1.8085,-1.8119,-1.8124,-1.8129,-1.8214,-1.8135,-1.8138,-1.814,-1.8318,-1.8321,-1.8324,0,0,0,0,0,0,-1.8054,-1.8062,-1.8123,-1.8092,-1.8098,-1.8089,-1.811,-1.8107,-1.8118,-1.8116,-1.8115,-1.8104,-1.8118,-1.8124,-1.8176,-1.8215,-1.814,-1.8143,-1.8314,-1.8319,-1.8322,-1.8387,0,0,0,0,0,0,-1.8051,-1.8061,-1.809,-1.8093,-1.81,-1.817,-1.8112,-1.8109,-1.8124,-1.8118,-1.8129,-1.8128,-1.8116,-1.8171,-1.818,-1.8218,-1.8146,-1.8311,-1.8316,-1.8321,-1.8381,-1.8392,-1.8402,0,0,0,0,0,-1.8048,-1.811,-1.8092,-1.81,-1.8135,-1.8172,-1.8177,-1.8159,-1.8127,-1.8156,-1.8153,-1.8128,-1.8208,-1.8177,-1.8186,-1.8227,-1.8309,-1.8315,-1.8321,-1.8377,-1.839,-1.8402,0,0,0,0,0,0,-1.8117,-1.811,-1.809,-1.8154,-1.8163,-1.8163,-1.8199,-1.8175,-1.8197,-1.8191,-1.8169,-1.8172,-1.8228,-1.8232,-1.8197,-1.8296,-1.8253,-1.8261,-1.8292,-1.8305,-1.8315,-1.8315,-1.8149,0,0,0,0,0,-1.8138,-1.8167,-1.8161,-1.8218,-1.8223,-1.821,-1.8225,-1.821,-1.822,-1.8225,-1.8227,-1.8239,-1.8266,-1.8285,-1.8311,-1.8379,-1.838,-1.8411,-1.8422,-1.843,-1.8439,-1.8471,-1.8485,-1.8343,-1.8343,-1.8343,0,0,-1.8186,-1.8186,-1.8206,-1.8231,-1.8237,-1.8267,-1.8214,-1.8251,-1.8273,-1.8232,-1.828,-1.828,-1.8292,-1.8352,-1.8378,-1.8357,-1.8476,-1.8438,-1.8445,-1.8449,-1.8479,-1.8492,-1.8504,-1.8347,-1.8346,-1.8346,0,0,-1.8288,-1.829,-1.8336,-1.8341,-1.8348,-1.8337,-1.8347,-1.8349,-1.8347,-1.8393,-1.8361,-1.8387,-1.8436,-1.8444,-1.8455,-1.855,-1.8527,-1.8559,-1.8615,-1.8647,-1.8658,-1.8668,-1.8701,-1.8713,-1.8566,-1.8566,-1.8566,0,-1.8347,-1.839,-1.8364,-1.84,-1.8411,-1.8368,-1.8414,-1.8421,-1.8437,-1.8446,-1.842,-1.8475,-1.8481,-1.854,-1.8562,-1.8572,-1.8583,-1.856,-1.8658,-1.8668,-1.8676,-1.8708,-1.872,-1.857,-1.857,-1.8569,-1.8569,0,-1.8461,-1.8491,-1.8527,-1.8539,-1.8553,-1.8595,-1.8574,-1.8591,-1.8572,-1.8564,-1.861,-1.8613,-1.8636,-1.8648,-1.8633,-1.8703,-1.8689,-1.8661,-1.8618,-1.8694,-1.8723,-1.8735,-1.8576,-1.8574,-1.8573,-1.8572,0,0,-1.8615,-1.8604,-1.8618,-1.862,-1.862,-1.8644,-1.868,-1.8699,-1.8714,-1.8724,-1.8754,-1.8792,-1.8763,-1.8775,-1.8759,-1.8786,-1.8858,-1.8754,-1.8754,-1.8774,-1.8935,-1.8957,-1.8972,-1.8841,-1.8843,-1.8845,-1.8933,0,-1.8714,-1.8776,-1.8749,-1.8814,-1.884,-1.8795,-1.8827,-1.883,-1.8821,-1.8842,-1.8833,-1.8859,-1.882,-1.8826,-1.8851,-1.8845,-1.8891,-1.8837,-1.887,-1.8872,-1.8871,-1.8987,-1.9013,-1.9097,-1.8945,-1.8947,-1.8948,0,-1.8842,-1.8851,-1.8917,-1.8906,-1.8916,-1.8946,-1.8957,-1.8977,-1.8978,-1.8969,-1.8978,-1.8953,-1.8988,-1.8941,-1.8987,-1.8951,-1.8962,-1.896,-1.8962,-1.8968,-1.8917,-1.8996,-1.9124,-1.9137,-1.8966,-1.8964,-1.8963,0,-1.8946,-1.8976,-1.9018,-1.9021,-1.901,-1.9031,-1.9028,-1.9026,-1.9036,-1.9046,-1.9053,-1.9068,-1.9077,-1.9088,-1.9067,-1.9035,-1.9116,-1.9069,-1.9111,-1.9111,-1.9134,-1.9133,-1.9266,-1.9137,-1.9137,-1.9136,-1.9136,0,-1.9062,-1.9105,-1.9064,-1.909,-1.9134,-1.9101,-1.9146,-1.9138,-1.9135,-1.9159,-1.9121,-1.9144,-1.9114,-1.9133,-1.9117,-1.9157,-1.9161,-1.9155,-1.9151,-1.916,-1.9161,-1.917,-1.9164,-1.914,-1.9139,-1.9138,-1.9138,0,-1.919,-1.9164,-1.9206,-1.9189,-1.9186,-1.9219,-1.9205,-1.9228,-1.9212,-1.9242,-1.9247,-1.9225,-1.9245,-1.9223,-1.9244,-1.9232,-1.9286,-1.9272,-1.9285,-1.9282,-1.9325,-1.9322,-1.947,-1.9487,-1.9346,-1.9347,-1.9348,0,-1.9267,-1.9297,-1.9281,-1.9292,-1.9289,-1.9309,-1.9317,-1.9283,-1.9294,-1.9293,-1.9316,-1.9331,-1.9343,-1.9377,-1.9364,-1.9377,-1.9365,-1.9415,-1.9367,-1.9374,-1.9366,-1.9365,-1.9367,-1.9427,-1.9429,-1.943,-1.9431,0,-1.9407,-1.939,-1.9403,-1.9409,-1.9419,-1.9423,-1.9425,-1.9436,-1.9401,-1.9414,-1.9432,-1.944,-1.9456,-1.9473,-1.9481,-1.9478,-1.9449,-1.9445,-1.9455,-1.9467,-1.9473,-1.947,-1.9313,-1.9443,-1.9442,-1.9441,-1.944,-1.944,-1.9512,-1.9535,-1.9525,-1.9539,-1.9534,-1.9535,-1.9554,-1.9538,-1.9551,-1.956,-1.9538,-1.9561,-1.9555,-1.9562,-1.9562,-1.9579,-1.9557,-1.9573,-1.9577,-1.9582,-1.9589,-1.9467,-1.958,-1.958,-1.9579,-1.9579,-1.9579,0,-1.965,-1.9639,-1.9651,-1.9651,-1.9661,-1.9626,-1.9624,-1.9635,-1.9654,-1.965,-1.9659,-1.9678,-1.9691,-1.9674,-1.9684,-1.9701,-1.9687,-1.9705,-1.9705,-1.9704,-1.9607,-1.9597,-1.9715,-1.9715,-1.9715,-1.9715,-1.9715,-1.9715,-1.9723,-1.9759,-1.974,-1.9772,-1.9761,-1.978,-1.9781,-1.978,-1.9776,-1.9797,-1.9806,-1.9793,-1.9783,-1.979,-1.98,-1.9794,-1.9801,-1.9823,-1.9813,-1.9725,-1.9711,-1.9699,-1.9689,-1.9824,-1.9824,-1.9909,-1.9909,-1.991]}]]